Retour au catalogue

OPTICUBE 04

ActifSciencePO
NORAD 41851·PAYLOAD·🇺🇸 United States

Lancé Nov 11, 2016 depuis Vandenberg Space Force Base

Loading…

Prochains Passages (prochaines 24 heures)

TLE

FraisSource: Space-Track

Époque: Sep 14, 2026, 13:10 UTC

1 41851U 16067D   26257.54922661  .00001757  00000-0  11235-3 0  9991
2 41851  98.0585 114.4718 0015594 169.9859 190.1683 15.09971304538657

Suivez OPTICUBE 04 en temps réel avec AllMySat

Download on the App Store